| time (UTC) | temp F | wind direction | speed MPH | gust MPH | rain 1hr in | rain 24hr in | rain mn in | humidity % | barometer mb |
| 20260502130507 | 41 | 257 | 4.0 | 9.0 | 0.00 | 0.00 | 0.00 | 63 | 1019.2 |
| 20260502123503 | 35 | 282 | 2.0 | 2.0 | 0.00 | 0.00 | 0.00 | 72 | 1019.2 |
| 20260502123012 | 35 | 293 | 1.0 | 2.0 | 0.00 | 0.00 | 0.00 | 73 | 1019.1 |
| 20260502122506 | 34 | 279 | 1.0 | 2.0 | 0.00 | 0.00 | 0.00 | 74 | 1019.2 |
| 20260502122003 | 34 | 283 | 0.0 | 2.0 | 0.00 | 0.00 | 0.00 | 75 | 1019.2 |
| 20260502121512 | 33 | 283 | 1.0 | 2.0 | 0.00 | 0.00 | 0.00 | 73 | 1019.2 |
| 20260502121005 | 33 | 307 | 0.0 | 1.0 | 0.00 | 0.00 | 0.00 | 72 | 1019.1 |
| 20260502120505 | 32 | 307 | 0.0 | 1.0 | 0.00 | 0.00 | 0.00 | 73 | 1019.2 |
| 20260502115507 | 32 | 307 | 0.0 | 0.0 | 0.00 | 0.00 | 0.00 | 72 | 1019.1 |
| 20260502115003 | 32 | 307 | 0.0 | 0.0 | 0.00 | 0.00 | 0.00 | 72 | 1019.2 |
| 20260502114515 | 32 | 307 | 0.0 | 0.0 | 0.00 | 0.00 | 0.00 | 72 | 1019.2 |
| 20260502114008 | 32 | 309 | 0.0 | 2.0 | 0.00 | 0.00 | 0.00 | 72 | 1019.2 |
| 20260502113506 | 32 | 309 | 0.0 | 2.0 | 0.00 | 0.00 | 0.00 | 72 | 1019.1 |
| 20260502113014 | 32 | 309 | 1.0 | 1.0 | 0.00 | 0.00 | 0.00 | 72 | 1019.1 |
| 20260502112506 | 32 | 309 | 0.0 | 2.0 | 0.00 | 0.00 | 0.00 | 72 | 1019.1 |
| 20260502112004 | 32 | 309 | 1.0 | 2.0 | 0.00 | 0.00 | 0.00 | 72 | 1019.0 |
| 20260502111515 | 32 | 315 | 1.0 | 2.0 | 0.00 | 0.00 | 0.00 | 72 | 1019.0 |
| 20260502111005 | 32 | 315 | 1.0 | 2.0 | 0.00 | 0.00 | 0.00 | 72 | 1019.1 |
| 20260502110502 | 31 | 315 | 2.0 | 2.0 | 0.00 | 0.00 | 0.00 | 73 | 1019.1 |
| 20260502110017 | 31 | 315 | 2.0 | 2.0 | 0.00 | 0.00 | 0.00 | 74 | 1019.1 |
| 20260502105514 | 31 | 315 | 1.0 | 2.0 | 0.00 | 0.00 | 0.00 | 74 | 1019.1 |
| 20260502105006 | 31 | 315 | 2.0 | 2.0 | 0.00 | 0.00 | 0.00 | 75 | 1019.2 |
| 20260502104520 | 31 | 324 | 1.0 | 2.0 | 0.00 | 0.00 | 0.00 | 75 | 1019.1 |
| 20260502104009 | 31 | 324 | 1.0 | 2.0 | 0.00 | 0.00 | 0.00 | 75 | 1019.0 |
| 20260502103502 | 31 | 325 | 1.0 | 2.0 | 0.00 | 0.00 | 0.00 | 75 | 1019.1 |
| 20260502103018 | 31 | 324 | 1.0 | 2.0 | 0.00 | 0.00 | 0.00 | 75 | 1019.1 |
| 20260502102509 | 31 | 325 | 1.0 | 2.0 | 0.00 | 0.00 | 0.00 | 75 | 1019.2 |
| 20260502102004 | 31 | 320 | 1.0 | 2.0 | 0.00 | 0.00 | 0.00 | 75 | 1019.2 |
| 20260502101520 | 31 | 311 | 2.0 | 2.0 | 0.00 | 0.00 | 0.00 | 76 | 1019.2 |
| 20260502101008 | 31 | 313 | 2.0 | 2.0 | 0.00 | 0.00 | 0.00 | 77 | 1019.2 |
| 20260502100505 | 31 | 319 | 1.0 | 2.0 | 0.00 | 0.00 | 0.00 | 76 | 1019.2 |
| 20260502091524 | 30 | 335 | 1.0 | 2.0 | 0.00 | 0.00 | 0.00 | 81 | 1018.9 |
| 20260502091011 | 30 | 335 | 0.0 | 3.0 | 0.00 | 0.00 | 0.00 | 82 | 1018.9 |
| 20260502090505 | 29 | 335 | 1.0 | 3.0 | 0.00 | 0.00 | 0.00 | 82 | 1018.9 |
| 20260502071506 | 31 | 293 | 2.0 | 2.0 | 0.00 | 0.00 | 0.00 | 77 | 1019.1 |
| 20260502071003 | 31 | 275 | 0.0 | 1.0 | 0.00 | 0.00 | 0.00 | 77 | 1019.2 |
| 20260502070505 | 31 | 275 | 0.0 | 0.0 | 0.00 | 0.00 | 0.00 | 77 | 1019.3 |
| 20260502070016 | 31 | 275 | 0.0 | 0.0 | 0.00 | 0.00 | 0.00 | 78 | 1019.2 |
| 20260502065504 | 31 | 275 | 0.0 | 0.0 | 0.00 | 0.00 | 0.00 | 78 | 1019.2 |
| 20260502065003 | 31 | 275 | 0.0 | 0.0 | 0.00 | 0.00 | 0.00 | 78 | 1019.2 |
| 20260502064510 | 31 | 275 | 0.0 | 0.0 | 0.00 | 0.00 | 0.00 | 77 | 1019.3 |
| 20260502064004 | 31 | 275 | 0.0 | 0.0 | 0.00 | 0.00 | 0.00 | 77 | 1019.3 |
| 20260502063503 | 32 | 275 | 0.0 | 0.0 | 0.00 | 0.00 | 0.00 | 76 | 1019.3 |
| 20260502063012 | 32 | 275 | 0.0 | 0.0 | 0.00 | 0.00 | 0.00 | 75 | 1019.4 |
| 20260502062503 | 32 | 275 | 0.0 | 0.0 | 0.00 | 0.00 | 0.00 | 73 | 1019.4 |
| 20260502062004 | 32 | 275 | 0.0 | 0.0 | 0.00 | 0.00 | 0.00 | 72 | 1019.4 |
| 20260502061511 | 33 | 275 | 0.0 | 0.0 | 0.00 | 0.00 | 0.00 | 70 | 1019.4 |
| 20260502061003 | 34 | 275 | 0.0 | 2.0 | 0.00 | 0.00 | 0.00 | 69 | 1019.4 |
| 20260502060502 | 34 | 275 | 0.0 | 2.0 | 0.00 | 0.00 | 0.00 | 69 | 1019.3 |
| 20260502060013 | 34 | 275 | 1.0 | 2.0 | 0.00 | 0.00 | 0.00 | 69 | 1019.2 |
| 20260502055502 | 34 | 275 | 2.0 | 2.0 | 0.00 | 0.00 | 0.00 | 69 | 1019.2 |
| 20260502055003 | 34 | 288 | 1.0 | 2.0 | 0.00 | 0.00 | 0.00 | 68 | 1019.2 |
| 20260502054513 | 34 | 288 | 0.0 | 2.0 | 0.00 | 0.00 | 0.00 | 68 | 1019.3 |
| 20260502054003 | 34 | 288 | 0.0 | 2.0 | 0.00 | 0.00 | 0.00 | 69 | 1019.3 |
| 20260502053503 | 34 | 288 | 1.0 | 2.0 | 0.00 | 0.00 | 0.00 | 69 | 1019.4 |
| 20260502053013 | 34 | 288 | 1.0 | 2.0 | 0.00 | 0.00 | 0.00 | 70 | 1019.4 |
| 20260502052503 | 34 | 288 | 0.0 | 2.0 | 0.00 | 0.00 | 0.00 | 70 | 1019.4 |
| 20260502052006 | 34 | 288 | 0.0 | 0.0 | 0.00 | 0.00 | 0.00 | 70 | 1019.3 |
| 20260502051521 | 34 | 288 | 0.0 | 2.0 | 0.00 | 0.00 | 0.00 | 71 | 1019.4 |
| 20260502051002 | 33 | 288 | 0.0 | 2.0 | 0.00 | 0.00 | 0.00 | 73 | 1019.4 |
| 20260502050504 | 34 | 288 | 2.0 | 2.0 | 0.00 | 0.00 | 0.00 | 74 | 1019.3 |
| 20260502050017 | 34 | 292 | 2.0 | 2.0 | 0.00 | 0.00 | 0.00 | 73 | 1019.2 |
| 20260502045503 | 34 | 360 | 0.0 | 0.0 | 0.00 | 0.00 | 0.00 | 72 | 1019.2 |
| 20260502045003 | 34 | 360 | 0.0 | 1.0 | 0.00 | 0.00 | 0.00 | 72 | 1019.2 |
| 20260502044515 | 35 | 360 | 0.0 | 2.0 | 0.00 | 0.00 | 0.00 | 72 | 1019.2 |
| 20260502044002 | 35 | 360 | 1.0 | 2.0 | 0.00 | 0.00 | 0.00 | 70 | 1019.1 |
| 20260502043503 | 36 | 360 | 0.0 | 1.0 | 0.00 | 0.00 | 0.00 | 70 | 1019.1 |
| 20260502043013 | 36 | 360 | 0.0 | 2.0 | 0.00 | 0.00 | 0.00 | 69 | 1019.1 |
| 20260502042503 | 37 | 360 | 1.0 | 2.0 | 0.00 | 0.00 | 0.00 | 69 | 1019.2 |
| 20260502042003 | 37 | 360 | 0.0 | 2.0 | 0.00 | 0.00 | 0.00 | 67 | 1019.1 |
| 20260502041521 | 37 | 360 | 1.0 | 1.0 | 0.00 | 0.00 | 0.00 | 66 | 1019.1 |
| 20260502041004 | 38 | 360 | 1.0 | 1.0 | 0.00 | 0.00 | 0.00 | 65 | 1019.1 |
| 20260502040504 | 38 | 360 | 1.0 | 1.0 | 0.00 | 0.00 | 0.00 | 64 | 1019.1 |
| 20260502040016 | 38 | 360 | 1.0 | 1.0 | 0.00 | 0.00 | 0.00 | 64 | 1019.0 |
| 20260502035505 | 38 | 12 | 1.0 | 1.0 | 0.00 | 0.00 | 0.00 | 63 | 1018.9 |
| 20260502035006 | 38 | 12 | 1.0 | 2.0 | 0.00 | 0.00 | 0.00 | 63 | 1018.9 |
| 20260502034518 | 38 | 12 | 0.0 | 2.0 | 0.00 | 0.00 | 0.00 | 63 | 1018.9 |
| 20260502034004 | 39 | 12 | 0.0 | 2.0 | 0.00 | 0.00 | 0.00 | 63 | 1019.0 |
| 20260502033504 | 39 | 12 | 0.0 | 1.0 | 0.00 | 0.00 | 0.00 | 63 | 1018.9 |
| 20260502033022 | 39 | 12 | 0.0 | 2.0 | 0.00 | 0.00 | 0.00 | 64 | 1019.0 |
| 20260502032503 | 39 | 12 | 1.0 | 3.0 | 0.00 | 0.00 | 0.00 | 61 | 1019.0 |
| 20260502032005 | 39 | 9 | 2.0 | 3.0 | 0.00 | 0.00 | 0.00 | 62 | 1019.0 |
| 20260502031518 | 39 | 10 | 2.0 | 3.0 | 0.00 | 0.00 | 0.00 | 62 | 1019.1 |
| 20260502031004 | 39 | 15 | 2.0 | 3.0 | 0.00 | 0.00 | 0.00 | 63 | 1019.1 |
| 20260502030507 | 39 | 29 | 2.0 | 4.0 | 0.00 | 0.00 | 0.00 | 61 | 1019.0 |
| 20260502030018 | 39 | 33 | 3.0 | 5.0 | 0.00 | 0.00 | 0.00 | 60 | 1019.0 |
| 20260502025508 | 39 | 34 | 3.0 | 5.0 | 0.00 | 0.00 | 0.00 | 60 | 1018.9 |
| 20260502025006 | 40 | 29 | 3.0 | 6.0 | 0.00 | 0.00 | 0.00 | 60 | 1019.0 |
| 20260502024526 | 40 | 29 | 5.0 | 6.0 | 0.00 | 0.00 | 0.00 | 59 | 1018.9 |
| 20260502024003 | 40 | 39 | 4.0 | 6.0 | 0.00 | 0.00 | 0.00 | 58 | 1018.8 |
| 20260502023507 | 41 | 33 | 5.0 | 6.0 | 0.00 | 0.00 | 0.00 | 57 | 1018.8 |
| 20260502023022 | 41 | 34 | 5.0 | 6.0 | 0.00 | 0.00 | 0.00 | 56 | 1018.8 |
| 20260502022502 | 42 | 34 | 5.0 | 6.0 | 0.00 | 0.00 | 0.00 | 55 | 1018.7 |
| 20260502022008 | 42 | 37 | 5.0 | 6.0 | 0.00 | 0.00 | 0.00 | 55 | 1018.7 |
| 20260502021525 | 43 | 34 | 5.0 | 6.0 | 0.00 | 0.00 | 0.00 | 54 | 1018.6 |
| 20260502021007 | 43 | 39 | 6.0 | 6.0 | 0.00 | 0.00 | 0.00 | 53 | 1018.6 |
| 20260502020509 | 43 | 32 | 6.0 | 6.0 | 0.00 | 0.00 | 0.00 | 52 | 1018.5 |
| 20260502020022 | 44 | 32 | 5.0 | 6.0 | 0.00 | 0.00 | 0.00 | 52 | 1018.4 |
| 20260502015507 | 44 | 38 | 4.0 | 8.0 | 0.00 | 0.00 | 0.00 | 52 | 1018.2 |
| 20260502015009 | 44 | 32 | 6.0 | 8.0 | 0.00 | 0.00 | 0.00 | 49 | 1018.2 |
| 20260502014510 | 45 | 34 | 5.0 | 9.0 | 0.00 | 0.00 | 0.00 | 48 | 1018.2 |
| 20260502014009 | 45 | 27 | 6.0 | 9.0 | 0.00 | 0.00 | 0.00 | 46 | 1018.1 |
| 20260502013505 | 46 | 22 | 6.0 | 8.0 | 0.00 | 0.00 | 0.00 | 46 | 1018.1 |
| 20260502013011 | 46 | 360 | 5.0 | 8.0 | 0.00 | 0.00 | 0.00 | 46 | 1018.1 |
| 20260502012505 | 46 | 21 | 6.0 | 10.0 | 0.00 | 0.00 | 0.00 | 45 | 1018.1 |
| 20260502012012 | 47 | 13 | 7.0 | 11.0 | 0.00 | 0.00 | 0.00 | 45 | 1018.1 |
| 20260502011509 | 47 | 16 | 9.0 | 11.0 | 0.00 | 0.00 | 0.00 | 45 | 1018.1 |
| 20260502011004 | 47 | 26 | 8.0 | 11.0 | 0.00 | 0.00 | 0.00 | 44 | 1018.1 |
| 20260502010511 | 47 | 360 | 9.0 | 11.0 | 0.00 | 0.00 | 0.00 | 44 | 1018.1 |
| 20260502010020 | 48 | 10 | 9.0 | 11.0 | 0.00 | 0.00 | 0.00 | 44 | 1018.1 |
| 20260502005506 | 48 | 10 | 7.0 | 12.0 | 0.00 | 0.00 | 0.00 | 43 | 1018.1 |
| 20260502005010 | 48 | 12 | 9.0 | 12.0 | 0.00 | 0.00 | 0.00 | 43 | 1018.1 |
| 20260502004513 | 49 | 360 | 10.0 | 12.0 | 0.00 | 0.00 | 0.00 | 42 | 1018.0 |
| 20260502004015 | 49 | 350 | 10.0 | 16.0 | 0.00 | 0.00 | 0.00 | 42 | 1018.0 |
| 20260502003508 | 49 | 360 | 9.0 | 16.0 | 0.00 | 0.00 | 0.00 | 41 | 1018.0 |
| 20260502003011 | 49 | 351 | 12.0 | 15.0 | 0.00 | 0.00 | 0.00 | 41 | 1017.9 |
| 20260502002508 | 49 | 350 | 9.0 | 12.0 | 0.00 | 0.00 | 0.00 | 41 | 1017.9 |
| 20260502002011 | 49 | 360 | 7.0 | 16.0 | 0.00 | 0.00 | 0.00 | 41 | 1018.0 |
| 20260502001515 | 49 | 351 | 9.0 | 17.0 | 0.00 | 0.00 | 0.00 | 39 | 1018.0 |
| 20260502001003 | 50 | 360 | 14.0 | 17.0 | 0.00 | 0.00 | 0.00 | 39 | 1018.0 |
| 20260502000502 | 50 | 348 | 8.0 | 12.0 | 0.00 | 0.00 | 0.00 | 40 | 1018.0 |
| 20260502000018 | 49 | 28 | 9.0 | 16.0 | 0.00 | 0.00 | 0.00 | 40 | 1018.1 |
| 20260501235502 | 49 | 360 | 12.0 | 17.0 | 0.00 | 0.00 | 0.00 | 39 | 1018.1 |
| 20260501235007 | 50 | 32 | 12.0 | 19.0 | 0.00 | 0.00 | 0.00 | 39 | 1018.1 |
| 20260501234517 | 50 | 21 | 16.0 | 19.0 | 0.00 | 0.00 | 0.00 | 38 | 1017.9 |
| 20260501234003 | 50 | 26 | 13.0 | 17.0 | 0.00 | 0.00 | 0.00 | 37 | 1017.8 |
| 20260501233505 | 51 | 30 | 14.0 | 17.0 | 0.00 | 0.00 | 0.00 | 37 | 1017.7 |
| 20260501233019 | 50 | 9 | 14.0 | 17.0 | 0.00 | 0.00 | 0.00 | 36 | 1017.7 |
| 20260501232502 | 50 | 30 | 12.0 | 19.0 | 0.00 | 0.00 | 0.00 | 37 | 1017.7 |
| 20260501232005 | 50 | 31 | 15.0 | 19.0 | 0.00 | 0.00 | 0.00 | 37 | 1017.7 |
| 20260501231520 | 50 | 32 | 15.0 | 20.0 | 0.00 | 0.00 | 0.00 | 37 | 1017.7 |
| 20260501231003 | 51 | 28 | 14.0 | 20.0 | 0.00 | 0.00 | 0.00 | 36 | 1017.7 |
| 20260501230502 | 51 | 24 | 16.0 | 20.0 | 0.00 | 0.00 | 0.00 | 37 | 1017.7 |
| 20260501230004 | 51 | 18 | 13.0 | 15.0 | 0.00 | 0.00 | 0.00 | 38 | 1017.7 |
| 20260501225504 | 50 | 19 | 10.0 | 17.0 | 0.00 | 0.00 | 0.00 | 41 | 1017.7 |
| 20260501225003 | 50 | 348 | 9.0 | 21.0 | 0.00 | 0.00 | 0.00 | 40 | 1017.7 |
| 20260501224504 | 50 | 13 | 13.0 | 21.0 | 0.00 | 0.00 | 0.00 | 40 | 1017.8 |
| 20260501224003 | 50 | 11 | 13.0 | 17.0 | 0.00 | 0.00 | 0.00 | 38 | 1017.7 |
| 20260501223503 | 50 | 360 | 10.0 | 18.0 | 0.00 | 0.00 | 0.00 | 38 | 1017.8 |
| 20260501223003 | 50 | 360 | 13.0 | 19.0 | 0.00 | 0.00 | 0.00 | 39 | 1017.8 |
| 20260501222506 | 51 | 360 | 12.0 | 19.0 | 0.00 | 0.00 | 0.00 | 38 | 1017.9 |
| 20260501222009 | 51 | 24 | 14.0 | 17.0 | 0.00 | 0.00 | 0.00 | 37 | 1017.8 |
| 20260501221510 | 51 | 349 | 7.0 | 16.0 | 0.00 | 0.00 | 0.00 | 37 | 1017.9 |
| 20260501221007 | 51 | 11 | 11.0 | 20.0 | 0.00 | 0.00 | 0.00 | 37 | 1018.0 |
| 20260501220508 | 53 | 29 | 15.0 | 20.0 | 0.00 | 0.00 | 0.00 | 38 | 1017.8 |
| 20260501220012 | 52 | 350 | 7.0 | 17.0 | 0.00 | 0.00 | 0.00 | 36 | 1017.9 |
| 20260501215506 | 51 | 44 | 9.0 | 18.0 | 0.00 | 0.00 | 0.00 | 36 | 1017.8 |
| 20260501215007 | 51 | 32 | 9.0 | 18.0 | 0.00 | 0.00 | 0.00 | 39 | 1017.9 |
| 20260501214505 | 51 | 360 | 12.0 | 18.0 | 0.00 | 0.00 | 0.00 | 40 | 1017.9 |
| 20260501214002 | 50 | 11 | 16.0 | 22.0 | 0.00 | 0.00 | 0.00 | 40 | 1017.9 |
| 20260501213506 | 52 | 40 | 15.0 | 22.0 | 0.00 | 0.00 | 0.00 | 39 | 1017.9 |
| 20260501213005 | 52 | 28 | 13.0 | 18.0 | 0.00 | 0.00 | 0.00 | 39 | 1017.9 |
| 20260501212505 | 52 | 360 | 14.0 | 18.0 | 0.00 | 0.00 | 0.00 | 38 | 1017.9 |
| 20260501212007 | 52 | 11 | 11.0 | 15.0 | 0.00 | 0.00 | 0.00 | 37 | 1017.9 |
| 20260501211507 | 51 | 360 | 10.0 | 16.0 | 0.00 | 0.00 | 0.00 | 38 | 1017.9 |
| 20260501211002 | 51 | 25 | 11.0 | 18.0 | 0.00 | 0.00 | 0.00 | 38 | 1018.0 |
| 20260501210508 | 50 | 346 | 13.0 | 18.0 | 0.00 | 0.00 | 0.00 | 41 | 1018.0 |
| 20260501210005 | 50 | 29 | 11.0 | 18.0 | 0.00 | 0.00 | 0.00 | 42 | 1017.8 |
| 20260501205508 | 50 | 19 | 8.0 | 19.0 | 0.00 | 0.00 | 0.00 | 41 | 1017.7 |
| 20260501205012 | 50 | 42 | 13.0 | 19.0 | 0.00 | 0.00 | 0.00 | 40 | 1017.7 |
| 20260501204509 | 50 | 360 | 7.0 | 15.0 | 0.00 | 0.00 | 0.00 | 41 | 1017.7 |
| 20260501204006 | 49 | 26 | 9.0 | 18.0 | 0.00 | 0.00 | 0.00 | 40 | 1017.8 |
| 20260501203509 | 50 | 15 | 13.0 | 18.0 | 0.00 | 0.00 | 0.00 | 39 | 1017.8 |
| 20260501203005 | 50 | 27 | 13.0 | 18.0 | 0.00 | 0.00 | 0.00 | 39 | 1017.8 |
| 20260501202505 | 52 | 17 | 10.0 | 16.0 | 0.00 | 0.00 | 0.00 | 39 | 1017.8 |
| 20260501202007 | 51 | 311 | 8.0 | 15.0 | 0.00 | 0.00 | 0.00 | 40 | 1017.9 |
| 20260501201507 | 52 | 56 | 8.0 | 15.0 | 0.00 | 0.00 | 0.00 | 37 | 1017.9 |
| 20260501201006 | 51 | 28 | 9.0 | 15.0 | 0.00 | 0.00 | 0.00 | 44 | 1018.0 |
| 20260501200504 | 49 | 32 | 7.0 | 17.0 | 0.00 | 0.00 | 0.00 | 41 | 1017.9 |
| 20260501200009 | 50 | 11 | 13.0 | 17.0 | 0.00 | 0.00 | 0.00 | 40 | 1017.9 |
| 20260501195505 | 51 | 340 | 6.0 | 16.0 | 0.00 | 0.00 | 0.00 | 42 | 1017.8 |
| 20260501195003 | 49 | 339 | 6.0 | 16.0 | 0.00 | 0.00 | 0.00 | 42 | 1017.8 |
| 20260501194513 | 49 | 360 | 11.0 | 16.0 | 0.00 | 0.00 | 0.00 | 43 | 1017.9 |
| 20260501194006 | 49 | 24 | 5.0 | 20.0 | 0.00 | 0.00 | 0.00 | 39 | 1017.9 |
| 20260501193503 | 50 | 55 | 11.0 | 20.0 | 0.00 | 0.00 | 0.00 | 38 | 1017.9 |
| 20260501193011 | 49 | 15 | 13.0 | 20.0 | 0.00 | 0.00 | 0.00 | 42 | 1017.8 |
| 20260501192508 | 50 | 350 | 12.0 | 16.0 | 0.00 | 0.00 | 0.00 | 43 | 1018.0 |
| 20260501192002 | 52 | 350 | 8.0 | 15.0 | 0.00 | 0.00 | 0.00 | 38 | 1017.9 |
| 20260501191513 | 50 | 342 | 10.0 | 15.0 | 0.00 | 0.00 | 0.00 | 43 | 1018.0 |
| 20260501191011 | 49 | 72 | 5.0 | 13.0 | 0.00 | 0.00 | 0.00 | 44 | 1018.0 |
| 20260501190505 | 48 | 24 | 9.0 | 18.0 | 0.00 | 0.00 | 0.00 | 43 | 1018.1 |
| 20260501190030 | 48 | 350 | 13.0 | 18.0 | 0.00 | 0.00 | 0.00 | 44 | 1018.0 |
| 20260501185512 | 49 | 339 | 16.0 | 18.0 | 0.00 | 0.00 | 0.00 | 45 | 1017.9 |
| 20260501185003 | 49 | 70 | 3.0 | 13.0 | 0.00 | 0.00 | 0.00 | 43 | 1017.9 |
| 20260501184517 | 48 | 360 | 6.0 | 11.0 | 0.00 | 0.00 | 0.00 | 43 | 1017.9 |
| 20260501184009 | 49 | 336 | 7.0 | 12.0 | 0.00 | 0.00 | 0.00 | 46 | 1018.0 |
| 20260501183503 | 49 | 11 | 8.0 | 17.0 | 0.00 | 0.00 | 0.00 | 45 | 1018.0 |
| 20260501183020 | 48 | 11 | 7.0 | 19.0 | 0.00 | 0.00 | 0.00 | 43 | 1018.1 |
| 20260501182507 | 49 | 9 | 15.0 | 19.0 | 0.00 | 0.00 | 0.00 | 47 | 1018.0 |
| 20260501182004 | 48 | 23 | 8.0 | 13.0 | 0.00 | 0.00 | 0.00 | 44 | 1018.1 |
| 20260501181522 | 47 | 335 | 7.0 | 17.0 | 0.00 | 0.00 | 0.00 | 45 | 1018.2 |
| 20260501181009 | 47 | 23 | 12.0 | 17.0 | 0.00 | 0.00 | 0.00 | 45 | 1018.2 |
| 20260501180504 | 47 | 24 | 12.0 | 17.0 | 0.00 | 0.00 | 0.00 | 45 | 1018.1 |
| 20260501180027 | 48 | 13 | 12.0 | 17.0 | 0.00 | 0.00 | 0.00 | 46 | 1018.1 |
| 20260501175508 | 49 | 338 | 10.0 | 16.0 | 0.00 | 0.00 | 0.00 | 45 | 1018.0 |
| 20260501175010 | 48 | 360 | 7.0 | 16.0 | 0.00 | 0.00 | 0.00 | 48 | 1018.1 |
| 20260501174526 | 46 | 24 | 9.0 | 16.0 | 0.00 | 0.00 | 0.00 | 46 | 1018.2 |
| 20260501174011 | 47 | 360 | 12.0 | 16.0 | 0.00 | 0.00 | 0.00 | 49 | 1018.3 |
| 20260501173507 | 46 | 331 | 9.0 | 19.0 | 0.00 | 0.00 | 0.00 | 48 | 1018.3 |
| 20260501173030 | 47 | 344 | 12.0 | 19.0 | 0.00 | 0.00 | 0.00 | 48 | 1018.4 |
| 20260501172513 | 47 | 324 | 8.0 | 15.0 | 0.00 | 0.00 | 0.00 | 47 | 1018.3 |
| 20260501172004 | 46 | 344 | 10.0 | 17.0 | 0.00 | 0.00 | 0.00 | 49 | 1018.2 |
| 20260501171525 | 46 | 33 | 12.0 | 17.0 | 0.00 | 0.00 | 0.00 | 46 | 1018.1 |
| 20260501171003 | 47 | 349 | 6.0 | 18.0 | 0.00 | 0.00 | 0.00 | 48 | 1018.1 |
| 20260501170506 | 47 | 10 | 13.0 | 18.0 | 0.00 | 0.00 | 0.00 | 49 | 1018.2 |
| 20260501170023 | 47 | 360 | 11.0 | 17.0 | 0.00 | 0.00 | 0.00 | 48 | 1018.2 |
| 20260501165505 | 47 | 360 | 8.0 | 18.0 | 0.00 | 0.00 | 0.00 | 50 | 1018.2 |
| 20260501165008 | 46 | 53 | 8.0 | 18.0 | 0.00 | 0.00 | 0.00 | 49 | 1018.1 |
| 20260501164524 | 46 | 360 | 12.0 | 18.0 | 0.00 | 0.00 | 0.00 | 49 | 1018.2 |
| 20260501164006 | 47 | 334 | 14.0 | 19.0 | 0.00 | 0.00 | 0.00 | 49 | 1018.1 |
| 20260501163511 | 46 | 360 | 12.0 | 21.0 | 0.00 | 0.00 | 0.00 | 52 | 1018.0 |
| 20260501163026 | 47 | 340 | 13.0 | 21.0 | 0.00 | 0.00 | 0.00 | 51 | 1018.0 |
| 20260501162503 | 47 | 22 | 13.0 | 18.0 | 0.00 | 0.00 | 0.00 | 47 | 1018.0 |
| 20260501162012 | 47 | 19 | 13.0 | 21.0 | 0.00 | 0.00 | 0.00 | 50 | 1018.0 |
| 20260501161526 | 46 | 338 | 14.0 | 21.0 | 0.00 | 0.00 | 0.00 | 52 | 1018.0 |
| 20260501161006 | 46 | 9 | 14.0 | 18.0 | 0.00 | 0.00 | 0.00 | 49 | 1018.1 |
| 20260501160507 | 47 | 351 | 14.0 | 20.0 | 0.00 | 0.00 | 0.00 | 52 | 1017.9 |
| 20260501160027 | 46 | 360 | 16.0 | 20.0 | 0.00 | 0.00 | 0.00 | 52 | 1018.0 |
| 20260501155503 | 47 | 20 | 15.0 | 20.0 | 0.00 | 0.00 | 0.00 | 51 | 1018.0 |
| 20260501155011 | 47 | 350 | 16.0 | 20.0 | 0.00 | 0.00 | 0.00 | 54 | 1018.0 |
| 20260501154525 | 46 | 346 | 14.0 | 20.0 | 0.00 | 0.00 | 0.00 | 54 | 1017.8 |
| 20260501154006 | 45 | 9 | 15.0 | 20.0 | 0.00 | 0.00 | 0.00 | 56 | 1017.7 |
| 20260501153510 | 45 | 20 | 17.0 | 21.0 | 0.00 | 0.00 | 0.00 | 55 | 1017.7 |
| 20260501153055 | 45 | 340 | 15.0 | 21.0 | 0.00 | 0.00 | 0.00 | 57 | 1017.8 |
| 20260501152505 | 44 | 339 | 14.0 | 20.0 | 0.00 | 0.00 | 0.00 | 56 | 1017.8 |
| 20260501152011 | 45 | 9 | 16.0 | 22.0 | 0.00 | 0.00 | 0.00 | 59 | 1017.8 |
| 20260501151511 | 45 | 360 | 16.0 | 22.0 | 0.00 | 0.00 | 0.00 | 59 | 1017.7 |
| 20260501151006 | 44 | 11 | 15.0 | 19.0 | 0.00 | 0.00 | 0.00 | 60 | 1017.7 |
| 20260501150502 | 44 | 347 | 14.0 | 18.0 | 0.00 | 0.00 | 0.00 | 60 | 1017.7 |